星链-30086 (STARLINK-30086 )

导读 | 星芒AI

STARLINK-30086 是 SpaceX 星链计划中的一颗低轨通信卫星,属于第三代星链卫星(Starlink V1.5 或 V2)。它于2023年发射,部署在约550公里高度的近地轨道,旨在为全球用户提供高速互联网服务。该卫星采用先进推进系统和激光通信技术,提升网络稳定性和数据传输效率。作为星链星座的一部分,STARLINK-30086 支持偏远地区网络覆盖,助力实现全球宽带接入目标。

基本信息
目录编号:
56297
目录名称:
STARLINK-30086
国际标识:
2023-056M
轨道中心:
EARTH
卫星名称:
星链-30086
卫星全名:
星链-30086 (STARLINK-30086 )
卫星状态:
在轨 (已飞行974 天)
发射日期:
2023-04-19 UTC
国别 :
美国 (US)
星等 :
--
轨道信息
数据来源 国际轨道数据 AOE轨道数据
星历时间 2025-12-18T14:18:03+0800
11小时前
查看轨道信息
2025-12-12T20:00:00+0800
6天前
查看轨道信息
半长轴 6937.205km 6937.225km
偏心率 0.0001235 0.0000916
轨道倾角 43.001° 43.005°
近地点辐角 261.413° 166.210°
升交点赤经 292.786° 324.101°
平近点角 98.657° 307.761°
近地点 558.213km 558.454km
远地点 559.927km 559.726km
周期 95.838分钟 95.838分钟
每日圈数 15.025399 15.025334
详细信息
固有亮度:
5
最大亮度:
0.3
卫星平台:
Starlink v2.0 mini
覆盖范围:
全球
运营商:
太空探索技术公司
运营商所在国:
美国
制造商(研发单位):
太空探索技术公司
制造商所在国:
美国
使用方式:
暂无
卫星简介
星链(Starlink)计划是由太空探索技术公司(SpaceX)提出的一个巨型低轨卫星互联网星座项目,计划在2019年至2024年间在太空搭建由约1.2万颗卫星组成的“星链”网络,其中1584颗将部署在地球上空550千米处的近地轨道,并从2020年开始工作。该卫星仍在工作。
2D轨道图
3D轨道图
轨道高度分析图
轨道倾角分析图
轨道综合分析图
查看轨道综合分析图